Location: Buttermere
(51.3333°N, 1.5167°W)
Time: 01:03:41
(UTC+00:00)

USA 234 - Visible Passes

Search period start: 24 January 2021 00:00
Search period end: 03 February 2021 00:00
Orbit: 1098 x 1110 km, 123.0° (Epoch: 22 January)

Date Brightness Start Highest point End Pass type
(mag) Time Alt. Az. Time Alt. Az. Time Alt. Az.
24 Jan 3.6 17:29:48 10° ENE 17:36:10 56° N 17:42:32 10° W visible
24 Jan 3.3 19:16:51 45° ENE 19:18:46 63° NNE 19:25:14 10° WNW visible
24 Jan 4.2 21:04:11 42° WNW 21:04:11 42° WNW 21:08:20 10° WNW visible
25 Jan 3.5 18:32:17 24° ENE 18:36:13 55° N 18:42:35 10° WNW visible
25 Jan 3.3 20:19:37 72° NNW 20:19:37 72° NNW 20:25:32 10° WNW visible
25 Jan 5.4 22:06:58 18° WNW 22:06:58 18° WNW 22:08:34 10° WNW visible
26 Jan 3.6 17:47:42 12° ENE 17:53:43 56° N 18:00:05 10° W visible
26 Jan 3.3 19:35:03 53° ENE 19:36:19 63° NNE 19:42:47 10° WNW visible
26 Jan 4.6 21:22:23 34° WNW 21:22:23 34° WNW 21:25:53 10° WNW visible
27 Jan 3.5 18:50:28 29° ENE 18:53:47 55° N 19:00:09 10° WNW visible
27 Jan 3.6 20:37:48 61° NW 20:37:48 61° NW 20:43:06 10° WNW visible
27 Jan 5.6 22:25:08 15° WNW 22:25:08 15° WNW 22:26:07 10° WNW visible
28 Jan 3.6 18:05:52 15° ENE 18:11:16 56° N 18:17:38 10° W visible
28 Jan 3.3 19:53:13 60° NE 19:53:52 63° NNE 20:00:20 10° WNW visible
28 Jan 4.8 21:40:33 28° WNW 21:40:33 28° WNW 21:43:27 10° WNW visible
29 Jan 3.5 17:22:15 10° ENE 17:28:43 64° NNW 17:35:12 10° W visible
29 Jan 3.5 19:08:37 34° ENE 19:11:20 56° N 19:17:42 10° WNW visible
29 Jan 3.9 20:55:57 50° NW 20:55:57 50° NW 21:00:39 10° WNW visible
29 Jan 5.8 22:43:18 12° WNW 22:43:18 12° WNW 22:43:41 10° WNW visible
30 Jan 3.6 18:24:01 18° ENE 18:28:49 56° N 18:35:12 10° W visible
30 Jan 3.3 20:11:21 63° NNE 20:11:25 63° NNE 20:17:53 10° WNW visible
30 Jan 5.1 21:58:41 24° WNW 21:58:41 24° WNW 22:01:00 10° WNW visible
31 Jan 3.5 17:39:49 10° ENE 17:46:16 64° NNW 17:52:44 10° W visible
31 Jan 3.5 19:26:45 40° ENE 19:28:53 56° N 19:35:16 10° WNW visible
31 Jan 4.2 21:14:05 42° NW 21:14:05 42° NW 21:18:12 10° WNW visible
01 Feb 3.6 18:42:08 22° ENE 18:46:23 56° N 18:52:45 10° W visible
01 Feb 3.5 20:29:28 61° N 20:29:28 61° N 20:35:27 10° WNW visible
01 Feb 5.3 22:16:49 20° WNW 22:16:49 20° WNW 22:18:33 10° WNW visible
02 Feb 3.5 17:57:31 11° ENE 18:03:50 64° NNW 18:10:18 10° W visible
02 Feb 3.5 19:44:51 45° NE 19:46:26 56° N 19:52:48 10° WNW visible
02 Feb 4.5 21:32:12 36° WNW 21:32:12 36° WNW 21:35:46 10° WNW visible
